User: anonymous   Login
Location: Unspecified
(0.0000°N, 0.0000°E)
Time: 05:58:03
(UTC+01:00)
Language:

ARIANE 5 R/B - Orbit

View from above orbital plane
View from above orbital plane
View from above satellite
View from above satellite

Ground track
Ground track

The orbit data is extracted from the following two-line orbital elements,

1 29646U 06054D   17022.52925351 +.00000392 +00000-0 +13431-3 0  9995
2 29646 003.0003 026.7832 7090593 188.9554 144.1506 02.50887491088074
Epoch (UTC): 22 January 2017 12:42:07
Eccentricity: 0.7090593
inclination: 3.0003°
perigee height: 278 km
apogee height: 32721 km
right ascension of ascending node: 26.7832°
argument of perigee: 188.9554°
revolutions per day: 2.50887491
mean anomaly at epoch: 144.1506°
orbit number at epoch: 8807

The dashed part of the orbit path shows where the satellite is in the earth's shadow,  

DLR